When you browse on this site, cookies collect data to enhance your experience and personalize the content and advertising you see.
Visit our Privacy Policy to learn more. By continuing to use the site, you agree to this use of cookies and data.
  • In Hungary
  • List of Countries
  • For 7 days
  • Water Temperature
  • Satellite Maps
  • Weather Map
  • News
  • Weather Widgets
  • user-avatar
    Login

    Hourly Weather Kampli

    Today, 20 July, Saturday

    Time Temperature Precipitation Wind Pressure Humidity
    00:00 +28°C° 0.2 mm 4 mps 719 mmHg 80%
    01:00 +28°C° 0.2 mm 4 mps 718 mmHg 81%
    02:00 +27°C° 0.2 mm 4 mps 718 mmHg 82%
    03:00 +27°C° 0.8 mm 4 mps 718 mmHg 82%
    04:00 +27°C° 0.8 mm 4 mps 718 mmHg 82%
    05:00 +27°C° 0.8 mm 4 mps 718 mmHg 82%
    06:00 +27°C° 0.3 mm 4 mps 718 mmHg 80%
    07:00 +28°C° 0.3 mm 5 mps 719 mmHg 78%
    08:00 +28°C° 0.3 mm 5 mps 719 mmHg 76%
    09:00 +29°C° 0 mm 5 mps 719 mmHg 71%
    10:00 +32°C° 0 mm 5 mps 719 mmHg 66%
    11:00 +33°C° 0 mm 5 mps 719 mmHg 60%
    12:00 +33°C° 0.1 mm 5 mps 719 mmHg 58%
    13:00 +34°C° 0.1 mm 5 mps 718 mmHg 56%
    14:00 +35°C° 0.1 mm 6 mps 717 mmHg 53%
    15:00 +34°C° 0.2 mm 6 mps 717 mmHg 54%
    16:00 +34°C° 0.2 mm 6 mps 717 mmHg 55%
    17:00 +34°C° 0.2 mm 6 mps 717 mmHg 56%
    18:00 +33°C° 0.1 mm 6 mps 717 mmHg 60%
    19:00 +32°C° 0.1 mm 6 mps 718 mmHg 64%
    20:00 +30°C° 0.1 mm 6 mps 718 mmHg 69%
    21:00 +29°C° 0 mm 6 mps 719 mmHg 71%
    22:00 +29°C° 0 mm 6 mps 719 mmHg 73%
    23:00 +28°C° 0 mm 6 mps 719 mmHg 74%

    Tomorrow, 21 July, Sunday

    Time Temperature Precipitation Wind Pressure Humidity
    00:00 +28°C° 0 mm 6 mps 719 mmHg 76%
    01:00 +28°C° 0 mm 6 mps 718 mmHg 77%
    02:00 +27°C° 0 mm 6 mps 718 mmHg 79%
    03:00 +27°C° 0 mm 6 mps 718 mmHg 80%
    04:00 +27°C° 0 mm 5 mps 718 mmHg 81%
    05:00 +26°C° 0 mm 5 mps 718 mmHg 82%
    06:00 +27°C° 0 mm 5 mps 718 mmHg 79%
    07:00 +28°C° 0 mm 5 mps 719 mmHg 75%
    08:00 +29°C° 0 mm 5 mps 719 mmHg 72%
    09:00 +30°C° 0 mm 5 mps 719 mmHg 66%
    10:00 +33°C° 0 mm 5 mps 719 mmHg 60%
    11:00 +34°C° 0 mm 5 mps 719 mmHg 53%
    12:00 +35°C° 0 mm 5 mps 719 mmHg 52%
    13:00 +35°C° 0 mm 4 mps 718 mmHg 50%
    14:00 +35°C° 0 mm 4 mps 717 mmHg 48%
    15:00 +35°C° 0 mm 4 mps 717 mmHg 48%
    16:00 +35°C° 0 mm 4 mps 717 mmHg 48%
    17:00 +35°C° 0 mm 3 mps 717 mmHg 48%
    18:00 +34°C° 0 mm 5 mps 717 mmHg 53%
    19:00 +33°C° 0 mm 6 mps 718 mmHg 58%
    20:00 +32°C° 0 mm 7 mps 718 mmHg 63%
    21:00 +30°C° 0.1 mm 7 mps 719 mmHg 66%
    22:00 +30°C° 0.1 mm 7 mps 719 mmHg 69%
    23:00 +29°C° 0.1 mm 7 mps 719 mmHg 71%

    Day after tomorrow, 22 July, Monday

    Time Temperature Precipitation Wind Pressure Humidity
    00:00 +29°C° 0 mm 7 mps 719 mmHg 73%
    01:00 +28°C° 0 mm 6 mps 718 mmHg 75%
    02:00 +28°C° 0 mm 6 mps 718 mmHg 76%
    03:00 +28°C° 0 mm 6 mps 718 mmHg 77%
    04:00 +27°C° 0 mm 6 mps 717 mmHg 77%
    05:00 +27°C° 0 mm 5 mps 717 mmHg 78%
    06:00 +28°C° 0 mm 5 mps 718 mmHg 75%
    07:00 +29°C° 0 mm 5 mps 718 mmHg 72%
    08:00 +29°C° 0 mm 6 mps 719 mmHg 69%
    09:00 +32°C° 0 mm 5 mps 719 mmHg 63%
    10:00 +33°C° 0 mm 5 mps 719 mmHg 58%
    11:00 +35°C° 0 mm 5 mps 719 mmHg 52%
    12:00 +35°C° 0.3 mm 5 mps 718 mmHg 51%
    13:00 +35°C° 0.3 mm 5 mps 717 mmHg 50%
    14:00 +36°C° 0.3 mm 4 mps 716 mmHg 49%
    15:00 +36°C° 0.1 mm 4 mps 716 mmHg 50%
    16:00 +35°C° 0.1 mm 4 mps 716 mmHg 51%
    17:00 +35°C° 0.1 mm 4 mps 715 mmHg 52%
    18:00 +34°C° 1.4 mm 4 mps 716 mmHg 56%
    19:00 +33°C° 1.4 mm 3 mps 717 mmHg 61%
    20:00 +31°C° 1.4 mm 3 mps 717 mmHg 65%
    21:00 +32°C° 1.9 mm 4 mps 717 mmHg 68%
    22:00 +30°C° 1.9 mm 4 mps 717 mmHg 71%
    23:00 +29°C° 1.9 mm 4 mps 717 mmHg 74%

    23 July, Tuesday

    Time Temperature Precipitation Wind Pressure Humidity
    00:00 +29°C° 2.1 mm 5 mps 717 mmHg 76%
    01:00 +28°C° 2.1 mm 5 mps 716 mmHg 78%
    02:00 +28°C° 2.1 mm 6 mps 716 mmHg 80%
    03:00 +28°C° 2.3 mm 6 mps 716 mmHg 81%
    04:00 +27°C° 2.3 mm 6 mps 716 mmHg 83%
    05:00 +27°C° 2.3 mm 6 mps 716 mmHg 84%
    06:00 +27°C° 0.1 mm 5 mps 717 mmHg 82%
    07:00 +28°C° 0.1 mm 5 mps 717 mmHg 79%
    08:00 +29°C° 0.1 mm 5 mps 717 mmHg 77%
    09:00 +30°C° 0.2 mm 5 mps 717 mmHg 72%
    10:00 +32°C° 0.2 mm 4 mps 717 mmHg 66%
    11:00 +33°C° 0.2 mm 4 mps 717 mmHg 61%
    12:00 +34°C° 0.8 mm 4 mps 717 mmHg 60%
    13:00 +34°C° 0.8 mm 3 mps 716 mmHg 59%
    14:00 +34°C° 0.8 mm 3 mps 715 mmHg 58%
    15:00 +34°C° 1 mm 3 mps 715 mmHg 59%
    16:00 +34°C° 1 mm 2 mps 715 mmHg 60%
    17:00 +34°C° 1 mm 2 mps 715 mmHg 61%
    18:00 +32°C° 2.7 mm 2 mps 716 mmHg 66%
    19:00 +30°C° 2.7 mm 3 mps 716 mmHg 72%
    20:00 +29°C° 2.7 mm 3 mps 716 mmHg 78%
    21:00 +29°C° 0.5 mm 3 mps 717 mmHg 77%
    22:00 +29°C° 0.5 mm 3 mps 717 mmHg 77%
    23:00 +29°C° 0.5 mm 3 mps 717 mmHg 77%

    24 July, Wednesday

    Time Temperature Precipitation Wind Pressure Humidity
    00:00 +28°C° 0.1 mm 3 mps 717 mmHg 79%
    01:00 +28°C° 0.1 mm 3 mps 716 mmHg 81%
    02:00 +28°C° 0.1 mm 3 mps 716 mmHg 82%
    03:00 +28°C° 0.5 mm 3 mps 716 mmHg 83%
    04:00 +27°C° 0.5 mm 3 mps 716 mmHg 84%
    05:00 +27°C° 0.5 mm 3 mps 716 mmHg 84%
    06:00 +27°C° 0 mm 3 mps 716 mmHg 83%
    07:00 +28°C° 0 mm 3 mps 717 mmHg 82%
    08:00 +28°C° 0 mm 3 mps 717 mmHg 81%
    09:00 +29°C° 0 mm 3 mps 717 mmHg 75%
    10:00 +31°C° 0 mm 3 mps 717 mmHg 69%
    11:00 +32°C° 0 mm 2 mps 717 mmHg 63%
    12:00 +32°C° 0.6 mm 2 mps 717 mmHg 61%
    13:00 +34°C° 0.6 mm 2 mps 717 mmHg 59%
    14:00 +34°C° 0.6 mm 2 mps 716 mmHg 57%
    15:00 +34°C° 2.4 mm 2 mps 716 mmHg 60%
    16:00 +32°C° 2.4 mm 2 mps 716 mmHg 64%
    17:00 +31°C° 2.4 mm 2 mps 716 mmHg 67%
    18:00 +30°C° 3.2 mm 4 mps 717 mmHg 71%
    19:00 +29°C° 3.2 mm 6 mps 717 mmHg 74%
    20:00 +28°C° 3.2 mm 8 mps 718 mmHg 78%
    21:00 +28°C° 1.3 mm 8 mps 718 mmHg 80%
    22:00 +28°C° 1.3 mm 8 mps 718 mmHg 81%
    23:00 +27°C° 1.3 mm 8 mps 719 mmHg 83%

    25 July, Thursday

    Time Temperature Precipitation Wind Pressure Humidity
    00:00 +27°C° 0.1 mm 8 mps 718 mmHg 83%
    01:00 +27°C° 0.1 mm 8 mps 718 mmHg 82%
    02:00 +27°C° 0.1 mm 8 mps 718 mmHg 82%
    03:00 +27°C° 0 mm 7 mps 718 mmHg 82%
    04:00 +27°C° 0 mm 7 mps 718 mmHg 82%
    05:00 +27°C° 0 mm 6 mps 718 mmHg 82%
    06:00 +27°C° 0.1 mm 6 mps 719 mmHg 80%
    07:00 +28°C° 0.1 mm 6 mps 719 mmHg 78%
    08:00 +28°C° 0.1 mm 6 mps 720 mmHg 76%
    09:00 +28°C° 1 mm 6 mps 720 mmHg 75%
    10:00 +29°C° 1 mm 7 mps 720 mmHg 75%
    11:00 +29°C° 1 mm 7 mps 720 mmHg 74%
    12:00 +29°C° 0.5 mm 7 mps 719 mmHg 73%
    13:00 +30°C° 0.5 mm 7 mps 718 mmHg 71%
    14:00 +30°C° 0.5 mm 7 mps 718 mmHg 70%
    15:00 +30°C° 1.2 mm 7 mps 718 mmHg 71%
    16:00 +31°C° 1.2 mm 8 mps 718 mmHg 72%
    17:00 +29°C° 1.2 mm 8 mps 718 mmHg 72%
    18:00 +29°C° 0.1 mm 8 mps 718 mmHg 75%
    19:00 +28°C° 0.1 mm 7 mps 719 mmHg 77%
    20:00 +27°C° 0.1 mm 7 mps 719 mmHg 79%
    21:00 +27°C° 0.1 mm 7 mps 719 mmHg 80%
    22:00 +27°C° 0.1 mm 7 mps 719 mmHg 80%
    23:00 +27°C° 0.1 mm 7 mps 719 mmHg 80%
    Show more